User: anonymous   Login
Location: Unspecified
(0.0000°N, 0.0000°E)
Time: 15:18:45
(UTC+01:00)
Language:

Ariane 42L R/B - Orbit

View from above orbital plane
View from above orbital plane
View from above satellite
View from above satellite

Ground track
Ground track

The orbit data is extracted from the following two-line orbital elements,

1 26299U 00020B   14331.16217285  .00005828  00000-0  16274-2 0  1070
2 26299 007.5296 016.7690 6058047 107.6482 344.0507 03.93877213181237
Epoch (UTC): 27 November 2014 03:53:31
Eccentricity: 0.6058047
inclination: 7.5296°
perigee height: 298 km
apogee height: 20818 km
right ascension of ascending node: 16.7690°
argument of perigee: 107.6482°
revolutions per day: 3.93877213
mean anomaly at epoch: 344.0507°
orbit number at epoch: 18123

The dashed part of the orbit path shows where the satellite is in the earth's shadow,  

DLR